Terminal Aerodrome Forecast
Issued by NWS

Home | Current Version | Previous Version | Text Only | Print | Product List | Glossary On
Versions: 1 2 3 4 5 6 7 8 9 10 11 12 13 14 15 16 17 18
072
FTUS42 KFFC 112320
TAFFTY
TAF
KFTY 112320Z 1200/1224 00000KT P6SM SKC
     FM120400 23003KT P6SM SCT250 WS020/27035KT
     FM121200 30008G18KT P6SM BKN200
     FM121400 31015G25KT P6SM BKN030=

USA.gov is the U.S. government's official web portal to all federal, state and local government web resources and services.